Weather in Ulyanovka

Russia / Penza Oblast     53°06′17″N   46°45′38″E
temp.,
°C
wind,
m/s
gust,
m/s
humid.,
%
clouds,
%
prec.,
mm/h
press.,
hPa
HPBL,
m
28 february, sun
sun2800:00−16nnw51291100 0.0 1007545
03:00−17nnw6129297 0.0 1009508
06:00−18nnw5119380 0.0 1011409
09:00−16nw5109177 0.0 1012372
12:00−13nw588678 0.0 1012554
15:00−12nw588790 0.0 1013599
18:00−15nnw3994100 0.0 1015346
21:00−18nnw379784 0.0 1018175
1 march, mon
mon100:00−19nnw259788 0.0 1019108
03:00−19nw359844 0.0 1021120
06:00−20nnw25980 0.0 102293
09:00−16nnw35928 0.0 1024223
12:00−11nw348854 0.0 1024407
15:00−9wnw358874 0.0 1024492
18:00−13w369689 0.0 1023133
21:00−14wsw379880 0.0 1022160
2 march, tue
tue200:00−12wsw4109799 0.0 1020248
03:00−8wsw5149499 0.1 1016457
06:00−5sw71494100 0.6 1012629
09:00−3wsw71395100 1.5 1008686
12:00−1wsw71296100 1.3 1004785
15:000w51099100 2.1 1002675
18:00−1nw4109698 0.7 1002551
21:00−3wnw5129585 1.0 1004635
3 march, wed
wed300:00−5wnw4119696 0.2 1004399
03:00−5wnw4119598 0.3 1004380
06:00−6nw4119588 0.1 1005479
09:00−4nw5109293 0.2 1006618
12:00−3nw5989100 0.1 1007819
15:00−3nw61090100 0.3 1008836
18:00−6nw51192100 0.1 1010655
21:00−6nnw5129298 0.3 1013593
4 march, thu
thu400:00−9nnw41194100 0.1 1014429
03:00−10wnw399698 0.1 1016228
06:00−12w379788 0.0 1017187
09:00−9w499593 0.1 1017298
12:00−4wsw61189100 0.1 1015669
15:00−2wsw71389100 0.1 1013812
18:00−4wsw61590100 0.0 1012702
21:00−4wsw61791100 0.0 1011690